Home > Weather > Leipzig > Past weeks

Flag for Germany Past Weather in Leipzig, Saxony, Germany — Yesterday and Last 2 Weeks

Now
64 °F

Sunny.


Feels Like: 64 °F
Forecast: 58 / 72 °F
Wind: 10 mph from West

Location: Leipzig-Schkeuditz

Current Time: Jun 27, 2016 at 10:20:00 PM

Latest Report: Jun 27, 2016 at 9:50 PM


Visibility: 10 mi

Pressure: 30.07 "Hg

Humidity: 68%

Dew Point: 54 °F

Location of LeipzigLocation

Past Weather in Leipzig — Graph

°F

Leipzig Temperature Yesterday

Maximum temperature yesterday: 73 °F (at 3:50 PM)
Minimum temperature yesterday: 57 °F (at 4:50 AM)
Average temperature yesterday: 65 °F

High & Low Weather Summary for the Past Weeks

 TemperatureHumidityPressure
High93 °F (Jun 24, 2:50 PM)100% (Jun 12, 9:50 PM)30.24 "Hg (Jun 12, 9:50 PM)
Low48 °F (Jun 20, 5:20 AM)30% (Jun 24, 2:50 PM)29.47 "Hg (Jun 14, 4:20 PM)
Average66 °F73%29.91 "Hg
* Reported Jun 12 9:20 PM — Jun 27 9:20 PM, Leipzig, Weather by CustomWeather, © 2016

Note: Actual official high and low records may vary slightly from our data, if they occured in-between our weather recording intervals... More about our weather records

Advertising

Leipzig Weather History for the Previous 24 Hours

Scroll right to see more
 ConditionsComfort  
Time TempWeatherWind HumidityBarometerVisibility
9:20 PM
Mon, Jun 27
66 °FSunny.10 mph60%30.04 "Hg10 mi
8:50 PM64 °FSunny.13 mph64%30.04 "Hg10 mi
8:20 PM68 °FSunny.12 mph49%30.04 "Hg10 mi
7:50 PM70 °FSunny.13 mph46%30.04 "Hg10 mi
7:20 PM72 °FSunny.13 mph41%30.04 "Hg10 mi
6:50 PM72 °FSunny.17 mph38%30.04 "Hg10 mi
6:20 PM72 °FSunny.14 mph41%30.04 "Hg10 mi
5:50 PM73 °FSunny.17 mph38%30.04 "Hg10 mi
5:20 PM73 °FSunny.15 mph38%30.04 "Hg10 mi
4:50 PM73 °FSunny.15 mph36%30.04 "Hg10 mi
4:20 PM73 °FPassing clouds.13 mph38%30.04 "HgN/A
3:50 PM72 °FPassing clouds.13 mph44%30.04 "HgN/A
3:20 PM73 °FPassing clouds.12 mph41%30.07 "HgN/A
2:50 PM73 °FSunny.14 mph41%30.07 "Hg10 mi
2:20 PM70 °FSunny.13 mph46%30.07 "Hg10 mi
1:50 PM70 °FPassing clouds.13 mph43%30.07 "HgN/A
1:20 PM70 °FScattered clouds.10 mph46%30.07 "HgN/A
12:50 PM70 °FScattered clouds.10 mph53%30.09 "HgN/A
12:20 PM72 °FPassing clouds.10 mph50%30.09 "HgN/A
11:50 AM68 °FPassing clouds.12 mph53%30.09 "HgN/A
11:20 AM66 °FScattered clouds.12 mph60%30.09 "HgN/A
10:50 AM66 °FScattered clouds.9 mph64%30.09 "HgN/A
10:20 AM64 °FPassing clouds.5 mph60%30.09 "HgN/A
9:50 AM64 °FPassing clouds.6 mph64%30.09 "HgN/A
9:20 AM63 °FScattered clouds.5 mph73%30.09 "HgN/A
8:50 AM61 °FPartly sunny.9 mph77%30.09 "HgN/A
8:20 AM61 °FPartly sunny.10 mph77%30.09 "HgN/A
7:50 AM59 °FPassing clouds.7 mph82%30.09 "HgN/A
7:20 AM57 °FSunny.6 mph88%30.09 "Hg10 mi
6:50 AM57 °FSunny.5 mph82%30.09 "Hg10 mi
6:20 AM57 °FSunny.5 mph88%30.07 "Hg10 mi
5:50 AM55 °FClear.8 mph88%30.07 "Hg10 mi
5:20 AM55 °FClear.5 mph88%30.07 "Hg10 mi
4:50 AM54 °FClear.7 mph94%30.07 "Hg10 mi
4:20 AM55 °FClear.8 mph82%30.07 "Hg10 mi
3:50 AM55 °FClear.7 mph88%30.07 "Hg10 mi
3:20 AM55 °FClear.10 mph88%30.04 "Hg10 mi
2:50 AM55 °FClear.8 mph82%30.04 "Hg10 mi
2:20 AM57 °FClear.10 mph82%30.04 "Hg10 mi
1:50 AM59 °FClear.8 mph82%30.04 "Hg10 mi
1:20 AM61 °FClear.6 mph72%30.04 "Hg10 mi
12:50 AM63 °FPassing clouds.3 mph68%30.04 "HgN/A
12:20 AM64 °FClear.5 mph64%30.04 "Hg10 mi
11:50 PM
Sun, Jun 26
64 °FClear.5 mph64%30.04 "Hg10 mi
11:20 PM64 °FClear.5 mph64%30.04 "Hg10 mi
10:50 PM64 °FClear.6 mph64%30.04 "Hg10 mi
10:20 PM64 °FSunny.7 mph60%30.04 "Hg10 mi
Weather by CustomWeather, © 2016

See weather overviewHow to use our weather pages